Location: Catstown
(52.4386°N, 7.2633°W)
Time: 22:57:55
(UTC+00:00)

Resurs 01 Rocket - Pass Details

Date: 18 September 2020
Orbit: 633 x 645 km, 98.0° (Epoch: 30 October)

Event Time Altitude Azimuth Distance (km) Brightness Sun altitude
Exits shadow 19:19:14 - 98° (E) 2,117 3.6 -7.4°
Reaches altitude 10° 19:19:30 10° 95° (E) 2,048 3.5 -7.4°
Maximum altitude 19:22:19 17° 56° (NE) 1,645 3.4 -7.8°
Drops below altitude 10° 19:25:09 10° 16° (NNE) 2,055 4.2 -8.2°
Sets 19:28:01 0° 357° (N) 2,968 5.3 -8.7°
